Time,TemperatureF,DewpointF,PressureIn,WindDirection,WindDirectionDegrees,WindSpeedMPH,WindSpeedGustMPH,Humidity,HourlyPrecipIn,Conditions,Clouds,dailyrainin,SoftwareType,DateUTC
2013-03-09 00:01:00,55.6,42.3,29.94,South,190,8.1,8.1,61,0.00,OVC,,0.00,WeatherDisplay:10.37,2013-03-09 06:01:00,
2013-03-09 00:06:00,55.6,42.3,29.94,South,171,5.8,5.8,61,0.00,OVC,,0.00,WeatherDisplay:10.37,2013-03-09 06:06:00,
2013-03-09 00:11:00,55.8,42.5,29.94,SE,131,10.4,10.4,61,0.00,OVC,,0.00,WeatherDisplay:10.37,2013-03-09 06:11:00,
2013-03-09 00:16:00,55.8,41.6,29.94,South,171,12.7,12.7,59,0.00,OVC,,0.00,WeatherDisplay:10.37,2013-03-09 06:16:00,
2013-03-09 00:21:00,55.8,41.6,29.94,WNW,300,8.1,8.1,59,0.00,OVC,,0.00,WeatherDisplay:10.37,2013-03-09 06:21:00,
2013-03-09 00:26:00,55.8,41.6,29.94,SSW,201,8.1,8.1,59,0.00,OVC,,0.00,WeatherDisplay:10.37,2013-03-09 06:26:00,
2013-03-09 00:31:00,55.8,41.6,29.94,SSE,159,6.3,7.6,59,0.00,OVC,,0.00,WeatherDisplay:10.37,2013-03-09 06:31:00,
2013-03-09 00:36:00,55.8,41.6,29.94,ESE,122,5.8,5.8,59,0.00,OVC,,0.00,WeatherDisplay:10.37,2013-03-09 06:36:00,
2013-03-09 00:41:00,55.6,41.5,29.94,ESE,110,8.1,8.1,59,0.00,OVC,,0.00,WeatherDisplay:10.37,2013-03-09 06:41:00,
2013-03-09 00:46:00,55.6,41.5,29.94,SW,215,10.4,10.4,59,0.00,OVC,,0.00,WeatherDisplay:10.37,2013-03-09 06:46:00,
2013-03-09 00:51:00,55.6,41.5,29.94,SSE,150,5.8,5.8,59,0.00,OVC,,0.00,WeatherDisplay:10.37,2013-03-09 06:51:00,
2013-03-09 00:56:00,55.6,41.5,29.94,SE,130,9.2,9.2,59,0.00,OVC,,0.00,WeatherDisplay:10.37,2013-03-09 06:56:00,
2013-03-09 01:01:00,55.8,41.6,29.94,South,170,8.1,8.1,59,0.00,OVC,,0.00,WeatherDisplay:10.37,2013-03-09 07:01:00,
2013-03-09 01:06:00,55.8,40.3,29.94,SE,130,8.1,8.1,56,0.00,OVC,,0.00,WeatherDisplay:10.37,2013-03-09 07:06:00,
2013-03-09 01:11:00,55.8,40.3,29.94,SW,231,5.8,5.8,56,0.00,OVC,,0.00,WeatherDisplay:10.37,2013-03-09 07:11:00,
2013-03-09 01:16:00,55.6,40.1,29.94,ESE,122,8.1,8.1,56,0.00,OVC,,0.00,WeatherDisplay:10.37,2013-03-09 07:16:00,
2013-03-09 01:21:00,55.6,40.1,29.94,South,184,5.8,5.8,56,0.00,OVC,,0.00,WeatherDisplay:10.37,2013-03-09 07:21:00,
2013-03-09 01:26:00,55.4,40.0,29.94,ESE,117,8.1,8.1,56,0.00,OVC,,0.00,WeatherDisplay:10.37,2013-03-09 07:26:00,
2013-03-09 01:31:00,55.4,40.0,29.94,SE,126,6.3,6.3,56,0.00,OVC,,0.00,WeatherDisplay:10.37,2013-03-09 07:31:00,
2013-03-09 01:36:00,55.2,39.8,29.94,SSE,149,8.1,8.1,56,0.00,OVC,,0.00,WeatherDisplay:10.37,2013-03-09 07:36:00,
2013-03-09 01:41:00,55.2,39.8,29.94,South,176,8.1,8.1,56,0.00,OVC,,0.00,WeatherDisplay:10.37,2013-03-09 07:41:00,
2013-03-09 01:46:00,55.2,39.8,29.94,SSE,167,9.2,9.2,56,0.00,OVC,,0.00,WeatherDisplay:10.37,2013-03-09 07:46:00,
2013-03-09 01:51:00,55.2,39.8,29.94,SSW,201,8.1,8.1,56,0.00,OVC,,0.00,WeatherDisplay:10.37,2013-03-09 07:51:00,
2013-03-09 01:56:00,55.2,39.8,29.94,SSW,209,8.1,8.1,56,0.00,OVC,,0.00,WeatherDisplay:10.37,2013-03-09 07:56:00,
2013-03-09 02:01:00,55.2,39.8,29.94,SSW,199,9.2,9.2,56,0.00,OVC,,0.00,WeatherDisplay:10.37,2013-03-09 08:01:00,
2013-03-09 02:06:00,55.2,40.2,29.91,SE,143,8.1,8.1,57,0.00,OVC,,0.00,WeatherDisplay:10.37,2013-03-09 08:06:00,
2013-03-09 02:11:00,55.2,40.2,29.91,SSW,213,5.8,5.8,57,0.00,OVC,,0.00,WeatherDisplay:10.37,2013-03-09 08:11:00,
2013-03-09 02:16:00,55.2,40.2,29.91,South,177,9.2,9.2,57,0.00,OVC,,0.00,WeatherDisplay:10.37,2013-03-09 08:16:00,
2013-03-09 02:21:00,55.4,40.4,29.91,SW,220,11.5,11.5,57,0.00,OVC,,0.00,WeatherDisplay:10.37,2013-03-09 08:21:00,
2013-03-09 02:26:00,55.4,40.4,29.91,SSE,168,10.9,10.9,57,0.00,OVC,,0.00,WeatherDisplay:10.37,2013-03-09 08:26:00,
2013-03-09 02:31:00,55.4,40.4,29.91,SSW,205,5.8,5.8,57,0.00,OVC,,0.00,WeatherDisplay:10.37,2013-03-09 08:31:00,
2013-03-09 02:36:00,55.4,40.4,29.91,SE,141,5.8,5.8,57,0.00,OVC,,0.00,WeatherDisplay:10.37,2013-03-09 08:36:00,
2013-03-09 02:41:00,55.2,40.2,29.91,South,170,9.2,9.2,57,0.00,OVC,,0.00,WeatherDisplay:10.37,2013-03-09 08:41:00,
2013-03-09 02:46:00,55.0,40.1,29.91,ESE,108,8.1,8.1,57,0.00,OVC,,0.00,WeatherDisplay:10.37,2013-03-09 08:46:00,
2013-03-09 02:51:00,55.0,40.1,29.91,SSW,202,3.5,4.0,57,0.00,OVC,,0.00,WeatherDisplay:10.37,2013-03-09 08:51:00,
2013-03-09 02:56:00,54.9,39.9,29.91,South,170,8.1,8.1,57,0.00,OVC,,0.00,WeatherDisplay:10.37,2013-03-09 08:56:00,
2013-03-09 03:01:00,54.9,39.9,29.91,South,169,5.8,5.8,57,0.00,OVC,,0.00,WeatherDisplay:10.37,2013-03-09 09:01:00,
2013-03-09 03:06:00,54.7,39.7,29.88,SSE,156,5.8,5.8,57,0.00,OVC,,0.00,WeatherDisplay:10.37,2013-03-09 09:06:00,
2013-03-09 03:11:00,54.7,39.7,29.88,SSW,200,5.8,5.8,57,0.00,OVC,,0.00,WeatherDisplay:10.37,2013-03-09 09:11:00,
2013-03-09 03:16:00,54.5,38.2,29.88,SSW,204,5.8,5.8,54,0.00,OVC,,0.00,WeatherDisplay:10.37,2013-03-09 09:16:00,
2013-03-09 03:21:00,54.5,38.2,29.88,SW,227,5.8,5.8,54,0.00,OVC,,0.00,WeatherDisplay:10.37,2013-03-09 09:21:00,
2013-03-09 03:26:00,54.5,38.2,29.88,South,170,6.9,6.9,54,0.00,OVC,,0.00,WeatherDisplay:10.37,2013-03-09 09:26:00,
2013-03-09 03:31:00,54.7,38.4,29.88,South,170,8.1,8.1,54,0.00,OVC,,0.00,WeatherDisplay:10.37,2013-03-09 09:31:00,
2013-03-09 03:36:00,54.7,38.4,29.85,ESE,109,6.9,6.9,54,0.00,OVC,,0.00,WeatherDisplay:10.37,2013-03-09 09:36:00,
2013-03-09 03:41:00,54.7,38.4,29.85,SSE,168,4.6,4.6,54,0.00,OVC,,0.00,WeatherDisplay:10.37,2013-03-09 09:41:00,
2013-03-09 03:46:00,54.7,38.4,29.85,South,189,5.8,5.8,54,0.00,OVC,,0.00,WeatherDisplay:10.37,2013-03-09 09:46:00,
2013-03-09 03:51:00,54.7,38.4,29.85,SSE,153,6.3,6.7,54,0.00,OVC,,0.00,WeatherDisplay:10.37,2013-03-09 09:51:00,
2013-03-09 03:56:00,54.7,38.4,29.85,SSE,148,5.8,5.8,54,0.00,OVC,,0.00,WeatherDisplay:10.37,2013-03-09 09:56:00,
2013-03-09 04:01:00,54.5,38.2,29.85,SW,219,5.8,5.8,54,0.00,OVC,,0.00,WeatherDisplay:10.37,2013-03-09 10:01:00,
2013-03-09 04:06:00,54.3,38.0,29.85,SSE,159,4.6,4.6,54,0.00,OVC,,0.00,WeatherDisplay:10.37,2013-03-09 10:06:00,
2013-03-09 04:11:00,54.1,37.8,29.85,South,182,8.1,8.1,54,0.00,OVC,,0.00,WeatherDisplay:10.37,2013-03-09 10:11:00,
2013-03-09 04:16:00,54.1,37.8,29.85,South,171,5.8,5.8,54,0.00,OVC,,0.00,WeatherDisplay:10.37,2013-03-09 10:16:00,
2013-03-09 04:21:00,54.1,37.8,29.85,ESE,120,3.5,3.5,54,0.00,OVC,,0.00,WeatherDisplay:10.37,2013-03-09 10:21:00,
2013-03-09 04:26:00,54.1,37.8,29.85,SE,135,5.8,5.8,54,0.00,OVC,,0.00,WeatherDisplay:10.37,2013-03-09 10:26:00,
2013-03-09 04:31:00,54.0,37.7,29.85,SE,136,3.5,3.6,54,0.00,OVC,,0.00,WeatherDisplay:10.37,2013-03-09 10:31:00,
2013-03-09 04:36:00,53.8,37.5,29.83,SSE,155,4.0,4.0,54,0.00,OVC,,0.00,WeatherDisplay:10.37,2013-03-09 10:36:00,
2013-03-09 04:41:00,53.8,37.5,29.83,SSW,196,8.1,8.1,54,0.00,OVC,,0.00,WeatherDisplay:10.37,2013-03-09 10:41:00,
2013-03-09 04:46:00,53.8,37.5,29.83,SSE,149,5.4,5.4,54,0.00,OVC,,0.00,WeatherDisplay:10.37,2013-03-09 10:46:00,
2013-03-09 04:51:00,53.8,37.5,29.83,SSE,156,5.8,5.8,54,0.00,OVC,,0.00,WeatherDisplay:10.37,2013-03-09 10:51:00,
2013-03-09 04:56:00,53.6,37.3,29.83,SE,131,8.1,8.1,54,0.00,OVC,,0.00,WeatherDisplay:10.37,2013-03-09 10:56:00,
2013-03-09 05:01:00,53.4,37.2,29.83,SSE,158,9.2,9.2,54,0.00,OVC,,0.00,WeatherDisplay:10.37,2013-03-09 11:01:00,
2013-03-09 05:06:00,53.4,38.1,29.83,SSE,160,8.1,8.1,56,0.00,OVC,,0.00,WeatherDisplay:10.37,2013-03-09 11:06:00,
2013-03-09 05:11:00,53.4,38.1,29.83,South,169,5.8,5.8,56,0.00,OVC,,0.00,WeatherDisplay:10.37,2013-03-09 11:11:00,
2013-03-09 05:16:00,53.4,38.1,29.83,SW,221,8.1,8.1,56,0.00,OVC,,0.00,WeatherDisplay:10.37,2013-03-09 11:16:00,
2013-03-09 05:21:00,53.4,38.1,29.83,ESE,114,9.2,9.2,56,0.00,OVC,,0.00,WeatherDisplay:10.37,2013-03-09 11:21:00,
2013-03-09 05:26:00,53.4,38.1,29.83,SE,135,7.6,7.6,56,0.00,OVC,,0.00,WeatherDisplay:10.37,2013-03-09 11:26:00,
2013-03-09 05:31:00,53.4,38.1,29.83,SSW,207,9.2,9.2,56,0.00,OVC,,0.00,WeatherDisplay:10.37,2013-03-09 11:31:00,
2013-03-09 05:36:00,53.6,38.3,29.83,SSE,147,5.8,5.8,56,0.00,OVC,,0.00,WeatherDisplay:10.37,2013-03-09 11:36:00,
2013-03-09 05:41:00,53.6,38.3,29.83,SE,132,13.8,13.8,56,0.00,OVC,,0.00,WeatherDisplay:10.37,2013-03-09 11:41:00,
2013-03-09 05:46:00,53.6,38.3,29.83,SSE,159,8.1,8.1,56,0.00,OVC,,0.00,WeatherDisplay:10.37,2013-03-09 11:46:00,
2013-03-09 05:51:00,53.6,38.3,29.83,South,171,8.7,8.7,56,0.00,OVC,,0.00,WeatherDisplay:10.37,2013-03-09 11:51:00,
2013-03-09 05:56:00,53.6,38.3,29.83,ESE,117,4.6,4.6,56,0.00,OVC,,0.00,WeatherDisplay:10.37,2013-03-09 11:56:00,
2013-03-09 06:01:00,53.6,39.2,29.83,South,172,5.8,5.8,58,0.00,OVC,,0.00,WeatherDisplay:10.37,2013-03-09 12:01:00,
2013-03-09 06:06:00,53.6,39.2,29.83,SW,231,5.8,5.8,58,0.00,OVC,,0.00,WeatherDisplay:10.37,2013-03-09 12:06:00,
2013-03-09 06:11:00,53.8,39.3,29.83,South,183,5.8,5.8,58,0.00,OVC,,0.00,WeatherDisplay:10.37,2013-03-09 12:11:00,
2013-03-09 06:16:00,54.0,39.5,29.83,SSE,157,5.8,5.8,58,0.00,OVC,,0.00,WeatherDisplay:10.37,2013-03-09 12:16:00,
2013-03-09 06:21:00,54.0,39.5,29.83,East,85,5.8,5.8,58,0.00,OVC,,0.00,WeatherDisplay:10.37,2013-03-09 12:21:00,
2013-03-09 06:26:00,54.0,39.5,29.83,South,177,5.8,5.8,58,0.00,OVC,,0.00,WeatherDisplay:10.37,2013-03-09 12:26:00,
2013-03-09 06:31:00,54.0,39.5,29.83,South,190,5.8,5.8,58,0.00,OVC,,0.00,WeatherDisplay:10.37,2013-03-09 12:31:00,
2013-03-09 06:36:00,54.0,39.5,29.83,SW,217,4.6,4.6,58,0.00,OVC,,0.00,WeatherDisplay:10.37,2013-03-09 12:36:00,
2013-03-09 06:41:00,54.0,37.7,29.83,South,181,4.9,4.9,54,0.00,BKN,,0.00,WeatherDisplay:10.37,2013-03-09 12:41:00,
2013-03-09 06:46:00,53.6,37.3,29.83,SSW,196,6.3,6.3,54,0.00,BKN,,0.00,WeatherDisplay:10.37,2013-03-09 12:46:00,
2013-03-09 06:51:00,53.1,36.8,29.83,SW,216,5.8,5.8,54,0.00,BKN,,0.00,WeatherDisplay:10.37,2013-03-09 12:51:00,
2013-03-09 06:56:00,52.7,36.5,29.83,SW,222,5.8,5.8,54,0.00,BKN,,0.00,WeatherDisplay:10.37,2013-03-09 12:56:00,
2013-03-09 07:01:00,52.2,39.1,29.83,SSW,200,4.0,4.0,61,0.01,-RA,,0.01,WeatherDisplay:10.37,2013-03-09 13:01:00,
2013-03-09 07:06:00,51.6,38.6,29.83,WSW,243,4.6,4.6,61,0.02,-RA,,0.02,WeatherDisplay:10.37,2013-03-09 13:06:00,
2013-03-09 07:11:00,50.9,37.9,29.83,SW,234,2.3,0.0,61,0.02,-RA,,0.02,WeatherDisplay:10.37,2013-03-09 13:11:00,
2013-03-09 07:16:00,50.5,37.6,29.83,SE,129,3.6,3.6,61,0.03,-RA,,0.03,WeatherDisplay:10.37,2013-03-09 13:16:00,
2013-03-09 07:21:00,50.2,37.2,29.83,SE,129,0.0,0.0,61,0.03,-RA,,0.03,WeatherDisplay:10.37,2013-03-09 13:21:00,
2013-03-09 07:26:00,49.8,36.9,29.83,South,174,3.6,3.6,61,0.03,-RA,,0.04,WeatherDisplay:10.37,2013-03-09 13:26:00,
2013-03-09 07:31:00,49.6,36.7,29.83,SSE,161,3.5,0.0,61,0.04,-RA,,0.04,WeatherDisplay:10.37,2013-03-09 13:31:00,
2013-03-09 07:36:00,49.5,36.6,29.83,SSE,152,3.1,0.0,61,0.04,-RA,,0.04,WeatherDisplay:10.37,2013-03-09 13:36:00,
2013-03-09 07:42:00,49.3,43.0,29.83,SSE,162,3.1,0.0,79,0.06,-RA,,0.06,WeatherDisplay:10.37,2013-03-09 13:42:00,
2013-03-09 07:47:00,49.3,43.0,29.83,SE,139,2.3,2.3,79,0.07,-RA,,0.07,WeatherDisplay:10.37,2013-03-09 13:47:00,
2013-03-09 07:52:00,49.1,42.9,29.83,ESE,105,3.6,0.0,79,0.07,-RA,,0.07,WeatherDisplay:10.37,2013-03-09 13:52:00,
2013-03-09 07:57:00,48.9,42.7,29.83,SE,142,3.1,0.0,79,0.08,-RA,,0.08,WeatherDisplay:10.37,2013-03-09 13:57:00,
2013-03-09 08:02:00,48.7,43.5,29.83,SSE,148,0.0,0.0,82,0.07,RA,,0.08,WeatherDisplay:10.37,2013-03-09 14:02:00,
2013-03-09 08:07:00,48.7,43.5,29.83,SSE,148,0.0,0.0,82,0.06,OVC,,0.08,WeatherDisplay:10.37,2013-03-09 14:07:00,
2013-03-09 08:12:00,48.7,43.5,29.83,SSE,148,2.7,0.0,82,0.07,RA,,0.09,WeatherDisplay:10.37,2013-03-09 14:12:00,
2013-03-09 08:17:00,48.7,43.5,29.83,West,267,3.5,3.5,82,0.08,RA,,0.11,WeatherDisplay:10.37,2013-03-09 14:17:00,
2013-03-09 08:22:00,48.6,43.3,29.85,West,267,0.0,0.0,82,0.11,-RA,,0.15,WeatherDisplay:10.37,2013-03-09 14:22:00,
2013-03-09 08:27:00,48.4,43.1,29.85,West,267,0.0,0.0,82,0.15,-RA,,0.20,WeatherDisplay:10.37,2013-03-09 14:27:00,
2013-03-09 08:32:00,48.4,43.1,29.85,West,267,0.0,0.0,82,0.19,-RA,,0.25,WeatherDisplay:10.37,2013-03-09 14:32:00,
2013-03-09 08:37:00,48.2,43.0,29.83,West,267,0.0,0.0,82,0.23,-RA,,0.28,WeatherDisplay:10.37,2013-03-09 14:37:00,
2013-03-09 08:42:00,48.0,44.9,29.83,West,267,0.0,0.0,89,0.26,RA,,0.31,WeatherDisplay:10.37,2013-03-09 14:42:00,
2013-03-09 08:47:00,48.0,44.9,29.83,West,267,0.0,0.0,89,0.26,RA,,0.32,WeatherDisplay:10.37,2013-03-09 14:47:00,
2013-03-09 08:52:00,48.0,44.9,29.83,West,267,0.0,0.0,89,0.31,RA,,0.37,WeatherDisplay:10.37,2013-03-09 14:52:00,
2013-03-09 08:57:00,48.0,44.9,29.83,West,267,0.0,0.0,89,0.35,RA,,0.43,WeatherDisplay:10.37,2013-03-09 14:57:00,
2013-03-09 09:02:00,48.0,44.9,29.83,West,267,0.0,0.0,89,0.37,RA,,0.46,WeatherDisplay:10.37,2013-03-09 15:02:00,
2013-03-09 09:07:00,47.8,44.8,29.83,West,267,0.0,0.0,89,0.41,RA,,0.49,WeatherDisplay:10.37,2013-03-09 15:07:00,
2013-03-09 09:12:00,47.8,44.8,29.83,West,267,0.0,0.0,89,0.41,RA,,0.52,WeatherDisplay:10.37,2013-03-09 15:12:00,
2013-03-09 09:17:00,47.8,44.8,29.83,West,267,0.0,0.0,89,0.43,RA,,0.53,WeatherDisplay:10.37,2013-03-09 15:17:00,
2013-03-09 09:22:00,47.8,45.6,29.83,SE,141,0.0,0.0,92,0.39, +RA,,0.53,WeatherDisplay:10.37,2013-03-09 15:22:00,
2013-03-09 09:27:00,47.7,45.5,29.83,SSE,164,5.8,0.0,92,0.36, +RA,,0.54,WeatherDisplay:10.37,2013-03-09 15:27:00,
2013-03-09 09:32:00,47.7,45.5,29.83,WNW,284,2.3,2.3,92,0.33, +RA,,0.57,WeatherDisplay:10.37,2013-03-09 15:32:00,
2013-03-09 09:37:00,47.7,45.5,29.83,SE,127,5.8,5.8,92,0.31, +RA,,0.58,WeatherDisplay:10.37,2013-03-09 15:37:00,
2013-03-09 09:42:00,47.7,45.5,29.83,SW,230,2.3,0.0,92,0.29,-RA,,0.58,WeatherDisplay:10.37,2013-03-09 15:42:00,
2013-03-09 09:47:00,47.8,45.6,29.83,South,182,3.5,3.5,92,0.31,-RA,,0.63,WeatherDisplay:10.37,2013-03-09 15:47:00,
2013-03-09 09:52:00,47.8,45.6,29.80,SSW,193,3.5,0.0,92,0.28,-RA,,0.65,WeatherDisplay:10.37,2013-03-09 15:52:00,
2013-03-09 09:57:00,47.8,45.6,29.80,SE,128,0.0,0.0,92,0.22,-RA,,0.65,WeatherDisplay:10.37,2013-03-09 15:57:00,
2013-03-09 10:02:00,48.0,44.9,29.80,SE,128,2.3,0.0,89,0.21,-RA,,0.66,WeatherDisplay:10.37,2013-03-09 16:02:00,
2013-03-09 10:07:00,48.2,45.1,29.80,ESE,114,3.5,3.5,89,0.17,-RA,,0.66,WeatherDisplay:10.37,2013-03-09 16:07:00,
2013-03-09 10:12:00,48.6,45.5,29.80,SSE,149,4.0,0.0,89,0.16,-RA,,0.66,WeatherDisplay:10.37,2013-03-09 16:12:00,
2013-03-09 10:17:00,48.7,45.6,29.80,ESE,122,3.5,0.0,89,0.13,-RA,,0.66,WeatherDisplay:10.37,2013-03-09 16:17:00,
2013-03-09 10:22:00,48.7,45.6,29.80,SE,134,2.3,3.1,89,0.14,-RA,,0.67,WeatherDisplay:10.37,2013-03-09 16:22:00,
2013-03-09 10:27:00,48.7,45.6,29.80,SE,134,2.7,0.0,89,0.13,-RA,,0.67,WeatherDisplay:10.37,2013-03-09 16:27:00,
2013-03-09 10:32:00,48.9,45.8,29.80,SE,144,2.3,2.3,89,0.11,-RA,,0.67,WeatherDisplay:10.37,2013-03-09 16:32:00,
2013-03-09 10:37:00,48.7,45.6,29.77,SE,144,0.0,0.0,89,0.09,-RA,,0.67,WeatherDisplay:10.37,2013-03-09 16:37:00,
2013-03-09 10:42:00,48.7,45.6,29.77,SE,144,0.0,0.0,89,0.09,-RA,,0.68,WeatherDisplay:10.37,2013-03-09 16:42:00,
2013-03-09 10:47:00,48.7,45.6,29.77,SE,144,3.5,3.5,89,0.05,-RA,,0.68,WeatherDisplay:10.37,2013-03-09 16:47:00,
2013-03-09 10:52:00,49.1,46.0,29.77,SE,124,2.3,0.0,89,0.03,-RA,,0.68,WeatherDisplay:10.37,2013-03-09 16:52:00,
2013-03-09 10:57:00,49.1,46.0,29.77,SE,131,3.5,0.0,89,0.03,-RA,,0.68,WeatherDisplay:10.37,2013-03-09 16:57:00,
2013-03-09 11:02:00,49.1,46.0,29.77,SE,146,3.5,3.5,89,0.03,-RA,,0.69,WeatherDisplay:10.37,2013-03-09 17:02:00,
2013-03-09 11:07:00,49.1,46.0,29.77,SE,146,3.5,3.5,89,0.03,-RA,,0.70,WeatherDisplay:10.37,2013-03-09 17:07:00,
2013-03-09 11:12:00,48.9,45.8,29.77,SSE,154,2.3,2.7,89,0.04,-RA,,0.71,WeatherDisplay:10.37,2013-03-09 17:12:00,
2013-03-09 11:17:00,48.9,45.8,29.77,East,100,2.3,2.3,89,0.06,-RA,,0.72,WeatherDisplay:10.37,2013-03-09 17:17:00,
2013-03-09 11:22:00,48.9,45.8,29.77,SSE,150,2.3,0.0,89,0.06,-RA,,0.72,WeatherDisplay:10.37,2013-03-09 17:22:00,
2013-03-09 11:27:00,48.9,45.8,29.77,SE,139,3.5,3.5,89,0.06,-RA,,0.73,WeatherDisplay:10.37,2013-03-09 17:27:00,
2013-03-09 11:32:00,49.1,46.0,29.77,SE,135,3.5,3.5,89,0.06,-RA,,0.73,WeatherDisplay:10.37,2013-03-09 17:32:00,
2013-03-09 11:37:00,49.3,46.2,29.77,ESE,112,3.5,0.0,89,0.06,-RA,,0.73,WeatherDisplay:10.37,2013-03-09 17:37:00,
2013-03-09 11:42:00,49.6,46.5,29.77,South,171,2.3,0.0,89,0.06,-RA,,0.73,WeatherDisplay:10.37,2013-03-09 17:42:00,
2013-03-09 11:47:00,49.6,46.5,29.77,South,171,0.0,0.0,89,0.05,-RA,,0.73,WeatherDisplay:10.37,2013-03-09 17:47:00,
2013-03-09 11:52:00,49.8,46.7,29.77,South,169,0.0,0.0,89,0.05,-RA,,0.73,WeatherDisplay:10.37,2013-03-09 17:52:00,
2013-03-09 11:57:00,49.8,46.7,29.77,SE,127,3.1,3.1,89,0.05,-RA,,0.73,WeatherDisplay:10.37,2013-03-09 17:57:00,
2013-03-09 12:02:00,49.6,46.5,29.77,SE,127,2.3,0.0,89,0.06,-RA,,0.74,WeatherDisplay:10.37,2013-03-09 18:02:00,
2013-03-09 12:07:00,49.6,46.5,29.77,SSE,153,2.3,0.0,89,0.05,-RA,,0.74,WeatherDisplay:10.37,2013-03-09 18:07:00,
2013-03-09 12:12:00,49.6,45.3,29.77,South,175,5.8,5.8,85,0.05,-RA,,0.75,WeatherDisplay:10.37,2013-03-09 18:12:00,
2013-03-09 12:17:00,49.6,45.3,29.77,ESE,107,3.5,3.5,85,0.03,-RA,,0.75,WeatherDisplay:10.37,2013-03-09 18:17:00,
2013-03-09 12:22:00,49.8,45.5,29.77,South,183,0.0,0.0,85,0.04,-RA,,0.76,WeatherDisplay:10.37,2013-03-09 18:22:00,
2013-03-09 12:27:00,49.8,45.5,29.77,ESE,117,5.8,5.8,85,0.03,-RA,,0.76,WeatherDisplay:10.37,2013-03-09 18:27:00,
2013-03-09 12:32:00,50.0,45.7,29.77,South,183,4.6,0.0,85,0.03,-RA,,0.76,WeatherDisplay:10.37,2013-03-09 18:32:00,
2013-03-09 12:37:00,50.0,45.7,29.74,ESE,114,8.1,8.1,85,0.03,-RA,,0.77,WeatherDisplay:10.37,2013-03-09 18:37:00,
2013-03-09 12:42:00,50.2,45.8,29.74,SE,130,5.8,0.0,85,0.05,-RA,,0.78,WeatherDisplay:10.37,2013-03-09 18:42:00,
2013-03-09 12:47:00,50.2,45.8,29.74,SSE,162,5.8,5.8,85,0.06,-RA,,0.79,WeatherDisplay:10.37,2013-03-09 18:47:00,
2013-03-09 12:52:00,50.2,46.2,29.71,SE,140,4.6,4.6,86,0.06,-RA,,0.80,WeatherDisplay:10.37,2013-03-09 18:52:00,
2013-03-09 12:57:00,50.2,46.2,29.71,South,186,5.8,5.8,86,0.07,-RA,,0.80,WeatherDisplay:10.37,2013-03-09 18:57:00,
2013-03-09 13:02:00,50.4,47.2,29.71,SSE,160,3.5,3.5,89,0.08,-RA,,0.82,WeatherDisplay:10.37,2013-03-09 19:02:00,
2013-03-09 13:07:00,50.5,47.4,29.74,South,172,4.6,4.6,89,0.08,-RA,,0.82,WeatherDisplay:10.37,2013-03-09 19:07:00,
2013-03-09 13:12:00,50.7,47.6,29.74,SE,128,4.6,4.6,89,0.09,-RA,,0.83,WeatherDisplay:10.37,2013-03-09 19:12:00,
2013-03-09 13:17:00,50.9,47.8,29.74,South,172,5.8,5.8,89,0.08,-RA,,0.83,WeatherDisplay:10.37,2013-03-09 19:17:00,
2013-03-09 13:22:00,51.1,48.0,29.71,South,169,5.8,5.8,89,0.08,-RA,,0.83,WeatherDisplay:10.37,2013-03-09 19:22:00,
2013-03-09 13:27:00,51.3,48.1,29.71,SSE,159,3.5,3.5,89,0.07,-RA,,0.83,WeatherDisplay:10.37,2013-03-09 19:27:00,
2013-03-09 13:32:00,51.3,48.1,29.71,SE,135,5.8,5.8,89,0.07,-RA,,0.83,WeatherDisplay:10.37,2013-03-09 19:32:00,
2013-03-09 13:37:00,51.6,48.5,29.68,South,184,5.8,5.8,89,0.08,-RA,,0.84,WeatherDisplay:10.37,2013-03-09 19:37:00,
2013-03-09 13:42:00,52.0,48.8,29.68,SE,139,4.6,4.6,89,0.07,-RA,,0.84,WeatherDisplay:10.37,2013-03-09 19:42:00,
2013-03-09 13:47:00,52.3,49.2,29.68,SE,136,5.8,5.8,89,0.06,-RA,,0.84,WeatherDisplay:10.37,2013-03-09 19:47:00,
2013-03-09 13:52:00,52.7,49.5,29.71,SSE,149,5.8,5.8,89,0.05,-RA,,0.84,WeatherDisplay:10.37,2013-03-09 19:52:00,
2013-03-09 13:57:00,52.7,49.5,29.71,SSE,148,3.5,3.6,89,0.04,-RA,,0.84,WeatherDisplay:10.37,2013-03-09 19:57:00,
2013-03-09 14:02:00,52.9,49.7,29.71,SE,134,3.6,3.6,89,0.04,OVC,,0.84,WeatherDisplay:10.37,2013-03-09 20:02:00,
2013-03-09 14:07:00,52.9,49.7,29.71,WSW,247,3.5,3.5,89,0.02,OVC,,0.84,WeatherDisplay:10.37,2013-03-09 20:07:00,
2013-03-09 14:12:00,53.1,49.9,29.71,SE,139,3.5,3.5,89,0.02,OVC,,0.84,WeatherDisplay:10.37,2013-03-09 20:12:00,
2013-03-09 14:17:00,53.2,50.1,29.71,SW,215,3.5,3.5,89,0.02,RA,,0.85,WeatherDisplay:10.37,2013-03-09 20:17:00,
2013-03-09 14:22:00,53.4,50.3,29.68,ESE,113,6.9,6.9,89,0.02,RA,,0.85,WeatherDisplay:10.37,2013-03-09 20:22:00,
2013-03-09 14:27:00,53.4,50.3,29.68,South,174,5.8,5.8,89,0.02,OVC,,0.85,WeatherDisplay:10.37,2013-03-09 20:27:00,
2013-03-09 14:32:00,53.6,50.4,29.68,WSW,247,5.8,5.8,89,0.02,OVC,,0.85,WeatherDisplay:10.37,2013-03-09 20:32:00,
2013-03-09 14:37:00,53.6,50.4,29.71,South,180,4.6,4.6,89,0.02,RA,,0.86,WeatherDisplay:10.37,2013-03-09 20:37:00,
2013-03-09 14:42:00,53.6,50.4,29.71,South,172,3.5,3.5,89,0.02,RA,,0.86,WeatherDisplay:10.37,2013-03-09 20:42:00,
2013-03-09 14:47:00,53.6,50.4,29.71,SSW,203,3.5,3.5,89,0.02,OVC,,0.86,WeatherDisplay:10.37,2013-03-09 20:47:00,
2013-03-09 14:52:00,53.4,49.3,29.71,South,176,2.7,3.6,86,0.02,OVC,,0.86,WeatherDisplay:10.37,2013-03-09 20:52:00,
2013-03-09 14:57:00,53.4,49.3,29.71,SSW,196,3.5,3.5,86,0.02,OVC,,0.86,WeatherDisplay:10.37,2013-03-09 20:57:00,
2013-03-09 15:02:00,53.4,49.3,29.71,South,169,4.6,4.9,86,0.03,-RA,,0.87,WeatherDisplay:10.37,2013-03-09 21:02:00,
2013-03-09 15:07:00,53.4,49.3,29.71,South,172,3.5,3.5,86,0.04,-RA,,0.88,WeatherDisplay:10.37,2013-03-09 21:07:00,
2013-03-09 15:12:00,53.4,49.3,29.71,SSE,154,4.6,4.6,86,0.05,-RA,,0.89,WeatherDisplay:10.37,2013-03-09 21:12:00,
2013-03-09 15:17:00,53.4,49.3,29.71,South,191,8.1,8.1,86,0.04,-RA,,0.89,WeatherDisplay:10.37,2013-03-09 21:17:00,
2013-03-09 15:22:00,53.4,49.3,29.68,SSE,147,5.8,5.8,86,0.04,-RA,,0.89,WeatherDisplay:10.37,2013-03-09 21:22:00,
2013-03-09 15:27:00,53.2,49.2,29.68,SSW,194,5.8,5.8,86,0.04,-RA,,0.89,WeatherDisplay:10.37,2013-03-09 21:27:00,
2013-03-09 15:32:00,53.2,51.0,29.68,South,181,5.8,5.8,92,0.04,-RA,,0.89,WeatherDisplay:10.37,2013-03-09 21:32:00,
2013-03-09 15:37:00,53.2,51.0,29.68,SE,143,4.6,4.6,92,0.04,-RA,,0.90,WeatherDisplay:10.37,2013-03-09 21:37:00,
2013-03-09 15:42:00,53.1,50.8,29.68,South,169,5.8,5.8,92,0.04,-RA,,0.90,WeatherDisplay:10.37,2013-03-09 21:42:00,
2013-03-09 15:47:00,53.1,50.8,29.68,SSE,153,5.8,5.8,92,0.05,-RA,,0.91,WeatherDisplay:10.37,2013-03-09 21:47:00,
2013-03-09 15:52:00,52.9,50.6,29.71,SSW,198,5.8,5.8,92,0.09,-RA,,0.94,WeatherDisplay:10.37,2013-03-09 21:52:00,
2013-03-09 15:57:00,52.9,50.6,29.71,ESE,119,5.8,5.8,92,0.12,-RA,,0.97,WeatherDisplay:10.37,2013-03-09 21:57:00,
2013-03-09 16:02:00,53.1,50.8,29.71,SSW,197,5.8,5.8,92,0.12,-RA,,0.98,WeatherDisplay:10.37,2013-03-09 22:02:00,
2013-03-09 16:07:00,53.1,50.8,29.68,SSW,209,5.8,0.0,92,0.11,-RA,,0.98,WeatherDisplay:10.37,2013-03-09 22:07:00,
2013-03-09 16:12:00,53.1,50.8,29.68,SW,226,3.5,3.5,92,0.11,-RA,,0.99,WeatherDisplay:10.37,2013-03-09 22:12:00,
2013-03-09 16:17:00,53.1,50.8,29.68,SSW,210,3.6,3.6,92,0.11,-RA,,1.01,WeatherDisplay:10.37,2013-03-09 22:17:00,
2013-03-09 16:22:00,53.1,50.8,29.68,SSE,157,4.6,4.6,92,0.15,-RA,,1.03,WeatherDisplay:10.37,2013-03-09 22:22:00,
2013-03-09 16:28:00,53.1,50.8,29.68,SSE,157,0.0,0.0,92,0.16,-RA,,1.04,WeatherDisplay:10.37,2013-03-09 22:28:00,
2013-03-09 16:33:00,53.1,50.8,29.68,SSE,157,0.0,0.0,92,0.16,-RA,,1.04,WeatherDisplay:10.37,2013-03-09 22:33:00,
2013-03-09 16:38:00,53.1,50.8,29.68,South,179,4.6,4.6,92,0.15,-RA,,1.04,WeatherDisplay:10.37,2013-03-09 22:38:00,
2013-03-09 16:43:00,53.1,50.8,29.68,ESE,111,2.3,2.3,92,0.15,-RA,,1.04,WeatherDisplay:10.37,2013-03-09 22:43:00,
2013-03-09 16:48:00,53.1,50.8,29.68,SE,136,0.0,0.0,92,0.15,-RA,,1.05,WeatherDisplay:10.37,2013-03-09 22:48:00,
2013-03-09 16:53:00,53.1,50.8,29.68,SE,129,3.5,3.5,92,0.11,-RA,,1.06,WeatherDisplay:10.37,2013-03-09 22:53:00,
2013-03-09 16:58:00,52.9,50.6,29.68,SE,134,5.8,5.8,92,0.09,-RA,,1.06,WeatherDisplay:10.37,2013-03-09 22:58:00,
2013-03-09 17:03:00,52.9,50.6,29.68,SE,132,4.0,4.0,92,0.08,RA,,1.07,WeatherDisplay:10.37,2013-03-09 23:03:00,
2013-03-09 17:08:00,52.7,50.4,29.65,SE,132,3.5,3.5,92,0.09,RA,,1.08,WeatherDisplay:10.37,2013-03-09 23:08:00,
2013-03-09 17:13:00,52.7,50.4,29.65,SSE,163,3.6,4.0,92,0.10,RA,,1.09,WeatherDisplay:10.37,2013-03-09 23:13:00,
2013-03-09 17:18:00,52.7,50.4,29.65,SE,140,2.3,0.0,92,0.11,RA,,1.10,WeatherDisplay:10.37,2013-03-09 23:18:00,
2013-03-09 17:23:00,52.7,50.4,29.68,SE,131,4.0,4.0,92,0.09,RA,,1.12,WeatherDisplay:10.37,2013-03-09 23:23:00,
2013-03-09 17:28:00,52.7,50.4,29.68,ESE,117,5.8,5.8,92,0.09,RA,,1.13,WeatherDisplay:10.37,2013-03-09 23:28:00,
2013-03-09 17:33:00,52.7,50.4,29.68,SSE,161,5.8,0.0,92,0.10,RA,,1.14,WeatherDisplay:10.37,2013-03-09 23:33:00,
2013-03-09 17:38:00,52.7,50.4,29.65,East,98,2.3,0.0,92,0.10,RA,,1.14,WeatherDisplay:10.37,2013-03-09 23:38:00,
2013-03-09 17:43:00,52.5,50.3,29.65,East,98,0.0,0.0,92,0.11,RA,,1.15,WeatherDisplay:10.37,2013-03-09 23:43:00,
2013-03-09 17:48:00,52.5,50.3,29.65,ESE,117,2.7,2.7,92,0.11,RA,,1.15,WeatherDisplay:10.37,2013-03-09 23:48:00,
2013-03-09 17:53:00,52.5,50.3,29.65,ESE,112,5.8,5.8,92,0.10,-RA,,1.15,WeatherDisplay:10.37,2013-03-09 23:53:00,
2013-03-09 17:58:00,52.5,50.3,29.65,SE,134,3.5,3.5,92,0.09,-RA,,1.15,WeatherDisplay:10.37,2013-03-09 23:58:00,
2013-03-09 18:03:00,52.5,50.3,29.65,ESE,121,5.8,5.8,92,0.09,-RA,,1.15,WeatherDisplay:10.37,2013-03-10 00:03:00,
2013-03-09 18:08:00,52.5,50.3,29.65,East,99,4.6,4.6,92,0.08,-RA,,1.15,WeatherDisplay:10.37,2013-03-10 00:08:00,
2013-03-09 18:13:00,52.5,50.3,29.65,ESE,118,4.6,4.6,92,0.07,OVC,,1.15,WeatherDisplay:10.37,2013-03-10 00:13:00,
2013-03-09 18:18:00,52.5,50.3,29.65,ESE,107,5.8,5.8,92,0.05,OVC,,1.15,WeatherDisplay:10.37,2013-03-10 00:18:00,
2013-03-09 18:23:00,52.5,50.3,29.65,SSE,147,8.1,8.1,92,0.03,-RA,,1.15,WeatherDisplay:10.37,2013-03-10 00:23:00,
2013-03-09 18:28:00,52.7,50.4,29.65,ESE,113,5.8,5.8,92,0.02,-RA,,1.15,WeatherDisplay:10.37,2013-03-10 00:28:00,
2013-03-09 18:33:00,52.7,50.4,29.65,East,99,6.9,6.9,92,0.01,-RA,,1.15,WeatherDisplay:10.37,2013-03-10 00:33:00,
2013-03-09 18:38:00,52.5,50.3,29.65,ESE,112,3.5,3.5,92,0.01,-RA,,1.15,WeatherDisplay:10.37,2013-03-10 00:38:00,
2013-03-09 18:43:00,52.5,50.3,29.65,SE,132,3.5,3.6,92,0.00,-RA,,1.15,WeatherDisplay:10.37,2013-03-10 00:43:00,
2013-03-09 18:48:00,52.5,50.3,29.65,SE,133,3.5,3.5,92,0.00,-RA,,1.15,WeatherDisplay:10.37,2013-03-10 00:48:00,
2013-03-09 18:53:00,52.5,50.3,29.62,SSE,149,5.8,5.8,92,0.00,-RA,,1.15,WeatherDisplay:10.37,2013-03-10 00:53:00,
2013-03-09 18:58:00,52.7,50.4,29.62,ESE,121,4.6,4.6,92,0.00,-RA,,1.15,WeatherDisplay:10.37,2013-03-10 00:58:00,
2013-03-09 19:03:00,52.7,50.4,29.62,SE,140,5.8,5.8,92,0.00,BKN,,1.15,WeatherDisplay:10.37,2013-03-10 01:03:00,
2013-03-09 19:08:00,52.7,50.4,29.62,ESE,117,3.6,3.6,92,0.00,BKN,,1.15,WeatherDisplay:10.37,2013-03-10 01:08:00,
2013-03-09 19:13:00,52.9,50.6,29.62,SSE,161,8.1,8.1,92,0.00,BKN,,1.15,WeatherDisplay:10.37,2013-03-10 01:13:00,
2013-03-09 19:18:00,53.1,50.8,29.62,ESE,117,3.5,3.5,92,0.00,BKN,,1.15,WeatherDisplay:10.37,2013-03-10 01:18:00,
2013-03-09 19:23:00,53.2,51.0,29.62,SE,143,4.6,4.6,92,0.00,BKN,,1.15,WeatherDisplay:10.37,2013-03-10 01:23:00,
2013-03-09 19:28:00,53.2,51.0,29.62,SSE,163,3.1,3.1,92,0.00,BKN,,1.15,WeatherDisplay:10.37,2013-03-10 01:28:00,
2013-03-09 19:33:00,53.4,51.2,29.62,SW,214,3.5,0.0,92,0.00,OVC,,1.15,WeatherDisplay:10.37,2013-03-10 01:33:00,
2013-03-09 19:38:00,53.4,51.2,29.65,SSW,196,0.0,0.0,92,0.00,OVC,,1.15,WeatherDisplay:10.37,2013-03-10 01:38:00,
2013-03-09 19:43:00,53.4,51.2,29.65,SW,216,0.0,0.0,92,0.00,OVC,,1.15,WeatherDisplay:10.37,2013-03-10 01:43:00,
2013-03-09 19:48:00,53.4,51.2,29.65,SE,132,2.7,2.7,92,0.00,OVC,,1.15,WeatherDisplay:10.37,2013-03-10 01:48:00,
2013-03-09 19:53:00,53.4,51.2,29.65,East,97,0.0,0.0,92,0.00,OVC,,1.15,WeatherDisplay:10.37,2013-03-10 01:53:00,
2013-03-09 19:58:00,53.6,51.3,29.65,SE,139,3.5,3.5,92,0.00,OVC,,1.15,WeatherDisplay:10.37,2013-03-10 01:58:00,
2013-03-09 20:03:00,53.8,50.6,29.65,SE,144,3.5,3.5,89,0.00,OVC,,1.15,WeatherDisplay:10.37,2013-03-10 02:03:00,
2013-03-09 20:08:00,53.8,50.6,29.65,ESE,118,2.7,2.7,89,0.00,OVC,,1.15,WeatherDisplay:10.37,2013-03-10 02:08:00,
2013-03-09 20:13:00,54.0,50.8,29.65,SSE,150,3.5,3.5,89,0.00,OVC,,1.15,WeatherDisplay:10.37,2013-03-10 02:13:00,
2013-03-09 20:18:00,54.1,51.0,29.65,SE,127,3.5,3.5,89,0.00,OVC,,1.15,WeatherDisplay:10.37,2013-03-10 02:18:00,
2013-03-09 20:23:00,54.5,51.3,29.62,East,97,5.8,5.8,89,0.00,OVC,,1.15,WeatherDisplay:10.37,2013-03-10 02:23:00,
2013-03-09 20:28:00,54.5,51.3,29.62,SSE,148,3.5,0.0,89,0.00,OVC,,1.15,WeatherDisplay:10.37,2013-03-10 02:28:00,
2013-03-09 20:33:00,54.7,51.8,29.62,SSE,162,5.8,5.8,90,0.00,OVC,,1.15,WeatherDisplay:10.37,2013-03-10 02:33:00,
2013-03-09 20:38:00,55.0,52.2,29.62,SSE,158,3.5,3.5,90,0.00,OVC,,1.15,WeatherDisplay:10.37,2013-03-10 02:38:00,
2013-03-09 20:43:00,55.2,52.3,29.62,ESE,103,3.5,3.5,90,0.00,OVC,,1.15,WeatherDisplay:10.37,2013-03-10 02:43:00,
2013-03-09 20:48:00,55.2,52.3,29.62,South,183,3.5,3.5,90,0.00,OVC,,1.15,WeatherDisplay:10.37,2013-03-10 02:48:00,
2013-03-09 20:53:00,55.2,52.3,29.59,South,170,2.3,0.0,90,0.00,OVC,,1.15,WeatherDisplay:10.37,2013-03-10 02:53:00,
2013-03-09 20:58:00,55.2,52.3,29.59,SSW,192,2.3,0.0,90,0.00,OVC,,1.15,WeatherDisplay:10.37,2013-03-10 02:58:00,
2013-03-09 21:03:00,55.2,52.3,29.59,ESE,114,3.5,3.5,90,0.00,OVC,,1.15,WeatherDisplay:10.37,2013-03-10 03:03:00,
2013-03-09 21:08:00,55.2,52.3,29.62,SSE,153,3.5,3.5,90,0.00,OVC,,1.15,WeatherDisplay:10.37,2013-03-10 03:08:00,
2013-03-09 21:13:00,55.4,51.3,29.62,SE,130,3.5,3.5,86,0.00,OVC,,1.15,WeatherDisplay:10.37,2013-03-10 03:13:00,
2013-03-09 21:18:00,55.4,51.3,29.62,SE,130,3.5,0.0,86,0.00,OVC,,1.15,WeatherDisplay:10.37,2013-03-10 03:18:00,
2013-03-09 21:23:00,55.2,51.1,29.62,South,188,3.5,0.0,86,0.00,OVC,,1.15,WeatherDisplay:10.37,2013-03-10 03:23:00,
2013-03-09 21:28:00,55.2,51.1,29.62,SW,232,0.0,0.0,86,0.00,OVC,,1.15,WeatherDisplay:10.37,2013-03-10 03:28:00,
2013-03-09 21:33:00,55.4,51.3,29.62,WSW,243,2.7,3.1,86,0.00,OVC,,1.15,WeatherDisplay:10.37,2013-03-10 03:33:00,
2013-03-09 21:38:00,55.4,51.3,29.65,SSW,212,4.6,0.0,86,0.00,OVC,,1.15,WeatherDisplay:10.37,2013-03-10 03:38:00,
2013-03-09 21:43:00,55.4,51.3,29.65,SSW,212,0.0,0.0,86,0.00,OVC,,1.15,WeatherDisplay:10.37,2013-03-10 03:43:00,
2013-03-09 21:48:00,55.4,51.3,29.65,SSW,212,0.0,0.0,86,0.00,OVC,,1.15,WeatherDisplay:10.37,2013-03-10 03:48:00,
2013-03-09 21:53:00,55.4,51.3,29.65,SSE,148,2.3,0.0,86,0.00,OVC,,1.15,WeatherDisplay:10.37,2013-03-10 03:53:00,
2013-03-09 21:58:00,55.2,51.1,29.65,SSE,148,0.0,0.0,86,0.00,OVC,,1.15,WeatherDisplay:10.37,2013-03-10 03:58:00,
2013-03-09 22:03:00,55.2,51.1,29.65,SSE,148,0.0,0.0,86,0.00,OVC,,1.15,WeatherDisplay:10.37,2013-03-10 04:03:00,
2013-03-09 22:08:00,55.2,51.1,29.65,South,187,5.8,5.8,86,0.00,OVC,,1.15,WeatherDisplay:10.37,2013-03-10 04:08:00,
2013-03-09 22:13:00,55.2,51.1,29.65,SW,219,0.0,0.0,86,0.00,OVC,,1.15,WeatherDisplay:10.37,2013-03-10 04:13:00,
2013-03-09 22:18:00,55.2,51.1,29.65,South,178,3.5,0.0,86,0.00,OVC,,1.15,WeatherDisplay:10.37,2013-03-10 04:18:00,
2013-03-09 22:23:00,55.2,51.1,29.65,SSE,166,3.5,3.5,86,0.00,BKN,,1.15,WeatherDisplay:10.37,2013-03-10 04:23:00,
2013-03-09 22:28:00,55.2,51.1,29.65,SSE,166,0.0,0.0,86,0.00,BKN,,1.15,WeatherDisplay:10.37,2013-03-10 04:28:00,
2013-03-09 22:33:00,55.2,52.0,29.65,SSE,166,0.0,0.0,89,0.00,SCT,,1.15,WeatherDisplay:10.37,2013-03-10 04:33:00,
2013-03-09 22:38:00,55.2,52.0,29.65,SSE,166,0.0,0.0,89,0.00,SCT,,1.15,WeatherDisplay:10.37,2013-03-10 04:38:00,
2013-03-09 22:43:00,55.2,52.0,29.65,SSE,166,0.0,0.0,89,0.00,SCT,,1.15,WeatherDisplay:10.37,2013-03-10 04:43:00,
2013-03-09 22:48:00,55.2,52.0,29.65,SE,140,0.0,0.0,89,0.00,SCT,,1.15,WeatherDisplay:10.37,2013-03-10 04:48:00,
2013-03-09 22:53:00,55.2,52.0,29.62,SE,140,0.0,0.0,89,0.00,SCT,,1.15,WeatherDisplay:10.37,2013-03-10 04:53:00,
2013-03-09 22:58:00,55.2,52.0,29.62,SE,131,0.0,0.0,89,0.00,SCT,,1.15,WeatherDisplay:10.37,2013-03-10 04:58:00,
2013-03-09 23:00:00,55.2,52.0,29.62,SE,131,2.3,0.0,89,0.00,SCT,,1.15,WeatherDisplay:10.37,2013-03-10 05:00:00,
2013-03-09 23:05:00,55.2,52.9,29.62,South,171,2.3,0.0,92,0.00,CLR,,1.15,WeatherDisplay:10.37,2013-03-10 05:05:00,
2013-03-09 23:10:00,55.2,52.9,29.62,SE,140,0.0,0.0,92,0.00,CLR,,1.15,WeatherDisplay:10.37,2013-03-10 05:10:00,
2013-03-09 23:15:00,55.2,52.9,29.62,SE,142,0.0,0.0,92,0.00,CLR,,1.15,WeatherDisplay:10.37,2013-03-10 05:15:00,
2013-03-09 23:21:00,55.2,52.9,29.65,SE,140,3.1,0.0,92,0.00,CLR,,1.15,WeatherDisplay:10.37,2013-03-10 05:21:00,
2013-03-09 23:26:00,55.2,52.9,29.65,SE,135,2.3,0.0,92,0.00,CLR,,1.15,WeatherDisplay:10.37,2013-03-10 05:26:00,
2013-03-09 23:31:00,55.2,52.9,29.65,SE,139,0.0,2.0,92,0.00,CLR,,1.15,WeatherDisplay:10.37,2013-03-10 05:31:00,
2013-03-09 23:35:00,55.2,52.9,29.62,SE,135,2.3,0.0,92,0.00,CLR,,1.15,WeatherDisplay:10.37,2013-03-10 05:35:00,
2013-03-09 23:40:00,55.2,52.9,29.62,SE,135,0.0,0.0,92,0.00,CLR,,1.15,WeatherDisplay:10.37,2013-03-10 05:40:00,
2013-03-09 23:45:00,55.2,52.9,29.62,SE,135,0.0,0.0,92,0.00,CLR,,1.15,WeatherDisplay:10.37,2013-03-10 05:45:00,
2013-03-09 23:51:00,55.2,52.9,29.62,SE,135,0.0,0.0,92,0.00,CLR,,1.15,WeatherDisplay:10.37,2013-03-10 05:51:00,
2013-03-09 23:56:00,55.2,54.1,29.62,SE,135,0.0,0.0,96,0.00,CLR,,1.15,WeatherDisplay:10.37,2013-03-10 05:56:00,